Regional Weather Roundup
Issued by NWS Boston, MA

Home | Current Version | Previous Version | Text Only | Print | Product List | Glossary On
Versions: 1 2 3 4 5 6 7 8 9 10 11 12 13 14 15 16 17 18 19 20 21 22 23 24 25 26 27 28 29 30 31 32 33 34 35 36 37 38 39 40 41 42 43 44 45 46 47 48 49 50
000
ASUS41 KBOX 011710
RWRBOX

REGIONAL WEATHER ROUNDUP
NATIONAL WEATHER SERVICE TAUNTON MA
100 PM EDT WED OCT 01 2014

NOTE:  "FAIR" INDICATES FEW OR NO CLOUDS BELOW 12,000 FEET WITH NO
SIGNIFICANT WEATHER AND/OR OBSTRUCTIONS TO VISIBILITY.  THE FOLLOWING
OBSERVATION LOCATIONS DO NOT REPORT PRESENT WEATHER...PROVINCETOWN...
SMITHFIELD...BLOCK ISLAND...KEENE...AND OXFORD.

MAZALL-011800-
EASTERN MASSACHUSETTS

CITY           SKY/WX    TMP DP  RH WIND       PRES   REMARKS
BOSTON         RAIN      57  56  96 NE15      30.09R FOG
BEVERLY        RAIN      57  54  89 NE8       30.09R FOG
LAWRENCE       LGT RAIN  57  55  93 NE10      30.12S FOG
BEDFORD        RAIN      56  55  97 NE16      30.08F FOG
BLUE HILL        N/A     55  55 100 NE13G26   30.06F
NORWOOD        RAIN      58  56  93 NE8       30.07S FOG
MARSHFIELD     NOT AVBL
PLYMOUTH       HVY RAIN  58  58 100 N17G25    30.05F FOG
TAUNTON        HVY RAIN  58  57  97 VRB5      30.05S FOG
NEW BEDFORD    HVY RAIN  59  58  96 N9        30.02F FOG
$$

MAZALL-011800-
CAPE COD AND THE ISLANDS

CITY           SKY/WX    TMP DP  RH WIND       PRES   REMARKS
FALMOUTH       DRIZZLE   61  59  94 N16G25    30.01F
HYANNIS        RAIN      62  60  93 N15G23    29.99F FOG
CHATHAM        LGT RAIN  62  60  93 NE9       30.00F
PROVINCETOWN   CLOUDY    61  57  88 NE16G24   30.04F
NANTUCKET      CLOUDY    63  60  90 N15       29.97F
MARTHAS VNYRD  CLOUDY    62  60  93 N17G24    29.99F
$$

MAZALL-011800-
CENTRAL AND WESTERN MASSACHUSETTS

CITY           SKY/WX    TMP DP  RH WIND       PRES   REMARKS
WORCESTER      LGT RAIN  54  54 100 NE10G18   30.07F VSB 1/2
FITCHBURG      LGT RAIN  58  55  90 N6        30.11S FOG
ORANGE         LGT RAIN  58  56  93 N5        30.09S
SPRINGFIELD    LGT RAIN  60  57  89 N8        30.07F
WESTFIELD      CLOUDY    60  57  89 N9        30.07F
NORTH ADAMS    CLOUDY    60  56  86 CALM      30.10F
PITTSFIELD     CLOUDY    59  56  89 NE6       30.09S
$$

RIZALL-011800-
RHODE ISLAND

CITY           SKY/WX    TMP DP  RH WIND       PRES   REMARKS
PROVIDENCE     LGT RAIN  59  56  89 N15       30.05S
NEWPORT        LGT RAIN  60  57  89 NE17G26   30.01F
BLOCK ISLAND   CLOUDY    61  55  82 NE17G24   30.00F
SMITHFIELD     CLOUDY    57  50  77 N10G16    30.06R
WESTERLY       HVY RAIN  60  58  92 N7        30.03S FOG
$$

CTZALL-011800-
CONNECTICUT

CITY           SKY/WX    TMP DP  RH WIND       PRES   REMARKS
BRADLEY INTL   LGT RAIN  62  57  83 N9        30.06S
HARTFORD       RAIN      60  58  92 VRB7      30.06S FOG
BRIDGEPORT     LGT RAIN  61  59  93 N12       30.04F
DANBURY        CLOUDY    61  57  87 VRB5      30.07F
GROTON         CLOUDY    60  59  96 N10       30.02S
NEW HAVEN      LGT RAIN  63  59  87 N13       30.04S
CHESTER        NOT AVBL
MERIDEN        LGT RAIN  61  57  87 N9        30.05F
WILLIMANTIC    CLOUDY    60  57  89 N7        30.06F
OXFORD         LGT RAIN  59  54  82 NE12      30.07F FOG
$$

MEZ002-015-021-024-NHZ003-005-008-011-012-014-VTZ005-008-011800-
NORTHERN NEW ENGLAND

CITY           SKY/WX    TMP DP  RH WIND       PRES   REMARKS
PORTLAND ME    CLOUDY    59  53  80 N13G20    30.12F
BANGOR ME      CLOUDY    58  50  75 N13       30.16F
CONCORD NH     LGT RAIN  57  55  93 NE7       30.11F FOG
MANCHESTER NH  LGT RAIN  58  55  90 N7        30.09F FOG
NASHUA NH      LGT RAIN  57  57 100 CALM      30.11S FOG
PORTSMOUTH NH  FOG       56  55  94 NE6       30.10S VSB 1
JAFFREY NH     CLOUDY    56  54  93 VRB6      30.12S
KEENE NH       CLOUDY    59  50  72 N6        30.11F
BURLINGTON VT  CLOUDY    57  52  83 NW8       30.14F
MT. WASHINGTON FOG       46  46 100 E5          N/A  VSB 1/8
$$

NYZ052-076-011800-
EASTERN NEW YORK

CITY           SKY/WX    TMP DP  RH WIND       PRES   REMARKS
ALBANY         CLOUDY    64  57  78 VRB3      30.10F
NEW YORK CITY  LGT RAIN  63  57  82 NE9       30.04F
$$

ANZALL-011800-
MARINE OBSERVATIONS

STATION/POSITION TIME  TEMP    WIND        PRES    VSBY  WAVE
                       AIR SEA DIR/SP/G                  HT/PER
                 (UTC) (F)     (DEG/KT/KT) (MB)    (MI)  (FT/S)
BOSTON BUOY      1650   57 60   30/ 19/ 21 1018.3R         6/ 6
BUZZARDS BAY     1600           20/ 19/ 20 1016.4S
NANTUCKET SOUND  1650   63 64   20/ 19/ 23 1014.7F         3/ 4
MASS BAY-STELLWA 1604   58 60   30/ 19/ 23   N/A     3/4   6/ 5
ISLE OF SHOALS   1700   56      40/ 21/ 23 1018.3F
S OF BLOCK IS    1608      67                N/A           4/ 5
$$

......................KEY.........................
  SKY/WX - SKY CONDITION/PRESENT WEATHER
  TMP    - TEMPERATURE IN FAHRENHEIT
  DWPT   - DEWPOINT IN FAHRENHEIT
  RH     - RELATIVE HUMIDITY IN PERCENT
  WIND   - DIRECTION AND SPEED IN MPH
  PRES   - MEAN SEA LEVEL PRESSURE IN INCHES OF HG
  WCI    - WIND CHILL INDEX
  VSB    - VISIBILITY IN MILES
  HX     - HEAT INDEX
  TC     - TEMPERATURE IN CELSIUS
  VRB    - VARIABLE WIND DIRECTION
  N/A    - NOT AVAILABLE


USA.gov is the U.S. government's official web portal to all federal, state and local government web resources and services.